Total_Precipitation_Accumulation
0.00 0.00 0.00 0.00 0.01 0.02 0.04 0.05 0.10 0.12 0.14 0.22 0.33 0.53 0.73 0.84 0.97 1.09 1.11 1.22 1.53 2.00 2.36 2.65 2.80 3.03 3.32 3.54 3.72 3.96 4.32 4.41 4.13 4.03 3.91 3.75 3.38 3.20 2.90 2.60 2.29 2.19 2.17 2.31
0.00 0.01 0.01 0.00 0.01 0.03 0.04 0.06 0.10 0.12 0.15 0.23 0.28 0.48 0.68 0.73 0.93 1.04 1.12 1.27 1.41 1.66 2.19 2.46 2.47 2.71 2.91 3.34 3.78 4.05 4.02 3.88 3.58 3.57 3.76 3.94 3.87 3.44 2.89 2.59 2.42 2.13 2.05 2.13
0.01 0.02 0.01 0.01 0.01 0.02 0.07 0.09 0.10 0.11 0.15 0.26 0.35 0.75 0.88 0.79 0.89 0.99 1.07 1.22 1.35 1.55 1.76 2.07 2.10 2.17 2.36 2.79 3.22 3.29 3.12 3.01 2.82 2.77 2.98 3.13 3.34 3.18 2.83 2.51 2.30 2.10 1.99 1.95
0.01 0.01 0.01 0.02 0.02 0.02 0.06 0.05 0.05 0.08 0.18 0.35 0.44 0.86 1.09 1.09 1.16 1.03 1.06 1.12 1.37 1.54 1.60 1.72 1.79 1.83 1.85 1.93 2.15 2.27 2.31 2.34 2.34 2.31 2.45 2.57 2.71 2.67 2.56 2.48 2.22 1.97 1.75 1.69
0.02 0.02 0.02 0.03 0.04 0.03 0.05 0.04 0.05 0.09 0.18 0.38 0.43 0.63 1.04 1.30 1.34 1.11 1.07 1.08 1.23 1.27 1.33 1.41 1.48 1.50 1.51 1.56 1.75 1.90 2.04 2.16 2.27 2.22 2.24 2.40 2.63 2.56 2.35 2.17 2.01 1.88 1.72 1.58
0.03 0.04 0.04 0.04 0.04 0.03 0.05 0.06 0.12 0.17 0.28 0.65 0.56 0.64 1.00 1.23 1.08 1.04 0.96 0.90 0.97 0.98 1.09 1.26 1.34 1.38 1.37 1.39 1.55 1.70 1.81 1.84 1.91 1.96 1.93 1.92 2.00 2.03 1.90 1.76 1.69 1.59 1.44 1.37
0.12 0.10 0.08 0.05 0.05 0.06 0.08 0.14 0.47 0.87 1.05 1.01 0.61 0.70 1.13 1.02 0.85 0.84 0.85 0.87 0.91 0.92 0.89 1.02 1.20 1.23 1.33 1.38 1.44 1.49 1.53 1.51 1.46 1.47 1.37 1.31 1.38 1.52 1.52 1.47 1.47 1.41 1.24 1.12
0.21 0.24 0.16 0.09 0.08 0.09 0.13 0.22 0.61 0.89 0.89 0.88 0.73 1.10 1.30 0.89 0.79 0.74 0.67 0.68 0.69 0.66 0.64 0.72 0.86 0.97 1.05 1.16 1.21 1.23 1.23 1.23 1.22 1.22 1.24 1.17 1.15 1.24 1.30 1.39 1.35 1.29 1.13 1.00
0.14 0.16 0.11 0.08 0.07 0.11 0.21 0.28 0.30 0.50 0.59 0.91 1.07 1.30 1.14 0.87 0.80 0.74 0.74 0.68 0.66 0.62 0.59 0.61 0.69 0.76 0.75 0.82 0.88 0.90 0.96 1.06 1.13 1.11 1.13 1.06 1.03 1.13 1.22 1.27 1.31 1.32 1.28 1.18
0.07 0.09 0.11 0.08 0.10 0.15 0.17 0.21 0.28 0.42 0.62 0.89 1.04 1.35 1.52 1.32 1.13 0.95 0.96 0.83 0.71 0.59 0.52 0.52 0.51 0.52 0.50 0.60 0.76 0.81 0.97 1.03 0.99 0.93 0.86 0.82 0.89 1.06 1.18 1.15 1.10 1.20 1.25 1.24
0.07 0.07 0.10 0.13 0.14 0.16 0.19 0.22 0.29 0.36 0.42 0.66 1.00 1.18 0.99 1.07 1.08 1.07 0.91 0.77 0.69 0.59 0.48 0.46 0.48 0.47 0.45 0.50 0.67 0.70 0.77 0.92 0.93 0.84 0.77 0.73 0.74 0.82 0.93 0.96 0.93 0.97 1.02 1.09
0.08 0.09 0.14 0.20 0.17 0.15 0.18 0.21 0.31 0.47 0.50 0.58 0.80 0.96 0.65 0.75 0.78 0.71 0.64 0.52 0.48 0.49 0.40 0.35 0.38 0.44 0.49 0.63 0.69 0.63 0.63 0.67 0.77 0.77 0.73 0.72 0.71 0.67 0.65 0.66 0.73 0.75 0.78 0.82
0.10 0.14 0.26 0.47 0.49 0.30 0.24 0.20 0.24 0.31 0.40 0.46 0.67 0.84 0.68 0.63 0.67 0.66 0.63 0.54 0.45 0.44 0.42 0.38 0.41 0.45 0.48 0.63 0.75 0.66 0.62 0.63 0.71 0.72 0.71 0.72 0.71 0.66 0.57 0.54 0.59 0.63 0.60 0.59
0.09 0.11 0.21 0.44 0.42 0.33 0.30 0.26 0.28 0.32 0.43 0.43 0.47 0.68 0.76 0.76 0.71 0.66 0.59 0.52 0.48 0.37 0.35 0.36 0.42 0.55 0.58 0.55 0.64 0.61 0.58 0.62 0.68 0.76 0.85 0.82 0.72 0.66 0.61 0.57 0.56 0.56 0.53 0.52
0.09 0.09 0.10 0.14 0.19 0.27 0.31 0.26 0.26 0.27 0.30 0.45 0.39 0.49 0.70 0.76 0.69 0.65 0.59 0.45 0.39 0.38 0.33 0.34 0.40 0.52 0.60 0.59 0.60 0.56 0.58 0.61 0.62 0.71 0.81 0.80 0.76 0.72 0.70 0.64 0.54 0.54 0.53 0.48
0.17 0.15 0.16 0.16 0.20 0.27 0.29 0.26 0.21 0.18 0.19 0.25 0.29 0.42 0.49 0.46 0.53 0.56 0.51 0.47 0.44 0.45 0.39 0.38 0.34 0.35 0.43 0.49 0.50 0.49 0.49 0.51 0.56 0.59 0.65 0.73 0.76 0.70 0.65 0.58 0.51 0.50 0.49 0.52
0.29 0.28 0.25 0.24 0.24 0.30 0.36 0.29 0.21 0.17 0.15 0.22 0.38 0.55 0.49 0.43 0.48 0.49 0.42 0.39 0.41 0.34 0.29 0.28 0.26 0.26 0.27 0.28 0.33 0.45 0.45 0.43 0.50 0.58 0.61 0.67 0.71 0.66 0.58 0.49 0.49 0.47 0.48 0.54
0.26 0.34 0.34 0.34 0.42 0.54 0.36 0.22 0.21 0.23 0.18 0.17 0.27 0.39 0.41 0.37 0.39 0.41 0.37 0.33 0.29 0.23 0.20 0.19 0.17 0.17 0.18 0.17 0.21 0.30 0.39 0.47 0.50 0.57 0.62 0.65 0.64 0.64 0.60 0.57 0.55 0.57 0.58 0.59
0.25 0.36 0.40 0.44 0.54 0.47 0.29 0.26 0.29 0.32 0.29 0.20 0.25 0.30 0.30 0.34 0.35 0.41 0.33 0.29 0.24 0.20 0.20 0.21 0.20 0.17 0.20 0.23 0.27 0.38 0.50 0.55 0.58 0.61 0.67 0.68 0.70 0.76 0.76 0.68 0.64 0.65 0.69 0.65
0.31 0.38 0.50 0.52 0.65 0.60 0.43 0.31 0.28 0.34 0.58 0.42 0.35 0.31 0.29 0.35 0.46 0.52 0.37 0.30 0.25 0.23 0.21 0.20 0.21 0.21 0.23 0.29 0.40 0.51 0.65 0.74 0.75 0.70 0.69 0.75 0.78 0.85 0.91 0.89 0.82 0.77 0.79 0.72
0.66 0.60 0.56 0.64 0.74 0.57 0.40 0.33 0.39 0.67 0.81 0.52 0.46 0.43 0.41 0.41 0.39 0.38 0.33 0.26 0.23 0.24 0.24 0.23 0.25 0.28 0.31 0.35 0.44 0.59 0.69 0.77 0.81 0.80 0.79 0.88 0.95 1.03 1.10 1.16 1.13 1.07 0.99 0.93
0.82 0.87 0.82 0.84 0.96 0.86 0.52 0.45 0.64 0.79 0.62 0.56 0.52 0.49 0.46 0.40 0.36 0.34 0.31 0.25 0.22 0.22 0.24 0.28 0.35 0.40 0.36 0.36 0.47 0.60 0.68 0.74 0.84 0.86 0.92 0.99 1.11 1.11 1.16 1.42 1.45 1.43 1.34 1.16
0.86 0.97 1.04 1.00 0.97 0.74 0.68 0.72 0.76 0.78 0.69 0.64 0.54 0.46 0.41 0.37 0.35 0.40 0.39 0.31 0.27 0.24 0.25 0.30 0.40 0.48 0.54 0.58 0.66 0.76 0.78 0.82 0.90 1.00 1.10 1.14 1.20 1.32 1.39 1.50 1.54 1.54 1.51 1.38
0.78 0.75 0.98 1.06 0.97 0.86 0.76 0.63 0.68 0.88 0.79 0.59 0.48 0.45 0.41 0.37 0.31 0.29 0.29 0.29 0.29 0.27 0.30 0.31 0.38 0.56 0.72 0.81 0.82 0.83 0.89 0.99 1.11 1.23 1.32 1.38 1.42 1.42 1.47 1.58 1.59 1.57 1.54 1.48
0.59 0.65 0.87 1.05 1.02 1.00 0.88 0.61 0.49 0.57 0.56 0.46 0.47 0.47 0.42 0.39 0.32 0.26 0.24 0.24 0.27 0.30 0.36 0.41 0.49 0.60 0.68 0.80 0.95 1.03 1.15 1.29 1.36 1.39 1.41 1.43 1.49 1.57 1.64 1.63 1.61 1.61 1.60 1.50
0.62 0.65 0.86 1.05 0.90 0.89 0.83 0.63 0.50 0.42 0.39 0.39 0.49 0.52 0.40 0.35 0.34 0.31 0.27 0.28 0.28 0.30 0.39 0.48 0.60 0.73 0.81 0.96 1.11 1.18 1.30 1.48 1.63 1.62 1.55 1.57 1.60 1.66 1.71 1.69 1.61 1.52 1.42 1.31